Location: Praha
(50.0830°N, 14.4670°E)
Time: 05:36:50
(UTC+02:00)

ISS - Pass Details

Date: 29 March 2020
Orbit: 417 x 423 km, 51.6° (Epoch: 29 March)

Event Time Altitude Azimuth Distance (km) Brightness Sun altitude
Rises 20:06:22 0° 276° (W) 2,359 2.4 -6.6°
Reaches altitude 10° 20:08:28 10° 280° (W) 1,496 0.8 -6.9°
Maximum altitude 20:11:49 65° 3° (N) 464 -3.5 -7.4°
Drops below altitude 10° 20:15:09 10° 86° (E) 1,497 -1.6 -7.9°
Enters shadow 20:15:13 10° 86° (E) 1,526 -1.5 -7.9°
